Location: B�rgermoos
(47.6500°N, 9.0667°E)
Time: 05:42:52
(UTC+00:00)

Lacrosse 5 rocket - Pass Details

Date: 18 September 2020
Orbit: 460 x 636 km, 57.0° (Epoch: 29 October)

Event Time Altitude Azimuth Distance (km) Brightness Sun altitude
Rises 21:26:51 0° 303° (WNW) 2,848 5.8 -35.3°
Reaches altitude 10° 21:29:18 10° 314° (NW) 1,968 4.9 -35.5°
Enters shadow 21:30:46 19° 326° (NNW) 1,501 4.1 -35.7°
